Wind_Speed
21 22 18 18 19 18 19 20 20 24 25 26 27 25 23 22 20 17 15 14 13 11 10 9 9 9 11 11 11 12 14 15 15 16 15 18 17 16 16 17 16 16 18
31 25 20 17 18 18 19 20 19 20 21 24 24 23 21 19 17 15 14 13 12 11 10 9 9 9 10 11 12 12 12 13 15 15 17 17 15 15 15 16 17 15 16
32 27 22 19 17 17 18 19 19 19 18 19 19 18 18 16 15 13 11 11 9 7 7 8 9 7 9 8 10 12 12 12 14 14 14 15 16 13 13 16 15 14 14
33 28 24 21 19 17 18 18 18 18 17 17 17 16 15 14 13 11 9 8 7 6 6 7 7 8 8 9 10 10 10 12 13 13 15 14 12 12 13 13 14 13 14
32 27 23 22 20 18 17 17 18 16 16 16 15 15 14 12 11 9 8 6 6 7 7 7 7 8 10 9 9 9 9 10 10 14 17 15 12 12 14 12 13 13 14
31 27 24 21 19 19 17 16 16 16 14 15 14 12 11 10 9 8 6 5 5 7 7 6 6 5 6 8 7 6 5 7 11 12 16 15 12 13 12 12 11 11 13
30 27 23 21 19 19 17 16 15 15 13 13 12 11 10 9 8 7 6 6 6 6 5 5 5 3 3 3 3 4 3 5 5 13 16 15 14 13 12 10 10 11 10
32 28 24 21 19 18 16 15 14 13 13 12 12 11 10 10 9 7 6 7 7 7 6 4 2 1 1 1 2 3 5 4 4 9 18 21 17 15 13 10 11 11 11
31 27 24 21 18 17 16 15 14 13 13 12 11 10 10 10 9 8 8 8 7 7 6 4 2 1 4 4 3 3 4 5 5 6 11 15 23 19 14 13 11 11 11
28 26 24 22 19 18 17 14 14 14 12 11 10 10 10 9 9 8 8 7 7 6 4 2 1 1 2 1 1 0 3 4 4 2 11 14 20 21 14 14 14 15 13
26 26 25 23 21 19 17 16 14 13 12 11 10 10 9 10 9 8 7 6 5 3 1 4 2 2 3 5 4 4 1 3 5 5 5 10 18 21 22 17 14 15 15
26 28 25 22 21 19 18 17 15 15 14 13 12 11 10 9 8 8 6 4 3 2 2 2 2 7 11 3 1 2 1 3 7 8 9 10 13 15 17 15 16 15 15
34 29 26 22 21 20 19 19 17 16 16 15 13 12 11 9 7 5 3 2 2 2 4 2 6 6 6 0 5 1 3 4 9 12 8 11 12 15 15 16 17 16 16
35 32 28 25 23 21 19 19 18 17 16 15 15 14 12 8 6 4 3 4 5 5 3 7 5 5 5 6 4 3 3 6 8 10 12 14 14 15 14 16 16 15 16
31 35 32 28 25 23 20 19 18 18 17 16 15 14 11 8 5 4 5 7 7 8 5 1 2 8 6 7 6 2 4 3 8 13 12 13 14 15 14 15 15 15 17
32 34 34 31 28 26 20 18 19 19 17 16 14 14 12 8 7 5 7 9 13 9 5 6 7 8 4 3 4 3 1 3 7 9 11 12 13 15 17 16 17 19 19
36 35 36 32 28 28 23 20 20 19 18 16 14 14 13 9 7 4 4 3 5 9 7 7 9 3 4 8 6 1 2 3 3 7 8 10 11 14 18 18 18 19 19
29 33 35 33 31 29 25 23 22 20 19 17 16 15 14 13 10 7 3 2 3 8 9 6 9 6 7 5 4 5 7 3 3 4 6 9 11 13 17 19 20 20 19
36 36 34 33 32 31 26 23 23 21 22 19 18 18 17 13 11 9 7 1 1 3 5 6 6 7 3 12 5 7 10 7 3 2 7 8 9 11 13 17 18 19 20
35 37 36 34 32 31 26 26 26 24 22 18 17 17 19 17 14 10 9 6 4 4 1 3 2 2 4 8 7 6 12 8 4 6 2 8 11 13 13 15 15 17 17
33 35 37 35 33 35 30 30 27 25 22 20 19 18 15 17 15 13 11 8 7 5 3 3 4 7 6 13 8 4 3 9 7 11 9 7 8 10 11 10 12 15 15
35 38 39 38 36 37 35 32 29 26 23 19 21 20 18 18 16 16 12 10 6 6 7 6 7 8 5 9 2 2 2 3 8 13 14 9 8 10 12 13 13 12 12
32 35 39 40 39 39 36 33 27 26 23 21 20 21 21 21 16 18 15 13 10 8 7 8 5 6 6 6 2 4 1 2 2 6 8 10 12 11 12 12 13 13 13
33 33 39 41 40 41 39 36 32 27 23 25 24 21 20 22 19 18 16 15 13 11 9 7 6 5 5 7 5 4 3 3 2 3 2 2 8 15 16 14 14 11 10
29 31 33 38 39 39 42 39 38 31 31 27 25 22 22 21 22 21 19 17 16 15 12 10 9 6 4 3 2 3 7 8 3 2 1 6 6 7 10 13 14 12 12
26 28 29 34 38 41 41 42 41 34 33 29 26 25 23 23 23 24 22 21 20 17 16 14 11 8 6 6 3 1 2 2 2 2 1 2 3 4 9 0 10 15 14
Wind_Direction
174 167 167 154 147 142 132 126 129 135 135 137 136 138 138 139 136 131 131 129 122 113 110 109 106 105 98 102 100 109 125 139 145 138 137 131 130 130 130 128 122 125 122
161 164 162 154 148 146 137 133 132 133 140 142 141 140 139 137 135 133 125 116 116 116 115 117 113 108 114 117 128 127 132 134 135 144 144 141 135 141 139 139 137 131 133
159 161 158 157 151 151 147 142 137 139 143 141 142 139 138 136 137 131 123 116 113 113 121 118 117 116 120 130 131 138 141 148 146 145 143 151 144 138 144 139 136 138 138
158 163 163 162 160 154 153 151 146 146 147 145 144 146 144 142 137 134 126 113 113 117 125 121 116 107 108 135 139 147 151 149 151 165 165 164 158 154 153 153 147 145 139
160 166 162 166 164 161 159 152 153 150 155 151 153 153 150 149 142 137 129 118 116 116 124 122 124 131 129 135 132 146 159 164 172 180 174 169 171 176 164 158 153 145 147
162 166 159 160 162 164 167 161 157 151 162 165 162 161 158 151 145 142 131 117 122 122 123 129 132 137 145 153 152 164 179 181 179 184 182 183 177 172 173 168 166 162 168
161 162 160 160 157 164 169 162 165 158 166 168 166 167 166 162 163 157 141 132 138 132 131 134 130 141 145 163 191 225 211 186 194 206 198 196 184 173 183 173 182 183 181
160 164 162 162 161 167 172 167 167 164 171 167 167 172 173 177 176 163 157 153 154 152 151 144 135 163 255 299 252 253 262 195 218 214 209 217 212 194 181 187 194 192 192
164 165 163 164 167 169 172 173 169 168 175 171 171 180 181 183 177 167 165 160 168 169 167 154 131 3 355 342 336 305 283 267 242 235 206 226 207 205 195 189 207 204 203
168 167 168 169 168 175 175 173 170 172 177 169 175 182 176 176 177 170 163 162 173 181 176 184 57 28 252 274 346 69 280 284 258 222 193 187 184 202 209 212 217 212 213
171 172 176 175 176 179 176 172 177 176 179 173 180 188 180 176 171 171 166 169 174 200 74 35 327 310 307 291 301 321 302 268 278 269 206 187 209 220 226 219 223 216 225
177 182 183 178 179 182 181 173 190 179 181 186 182 188 186 173 165 166 167 176 157 107 87 218 304 304 303 344 38 18 278 272 266 271 256 217 209 214 215 216 226 232 233
182 184 187 185 185 185 185 184 192 187 187 190 183 187 182 176 176 184 192 140 164 178 234 280 312 326 318 313 5 346 309 307 277 271 264 229 238 231 222 215 228 234 235
183 187 189 189 189 191 193 193 194 193 190 190 188 188 191 189 202 223 196 176 204 205 235 280 316 283 299 344 353 27 322 296 272 273 261 252 252 243 230 226 227 227 230
188 189 191 193 194 194 196 198 197 195 192 185 187 186 192 199 203 252 255 238 242 228 250 266 30 311 305 10 13 318 277 291 272 270 261 250 250 239 230 227 233 230 236
193 194 188 193 195 194 195 193 189 186 184 191 199 199 194 204 223 280 253 251 247 230 236 161 67 311 284 299 24 47 327 320 271 254 245 242 238 235 234 233 231 233 232
194 194 189 192 192 195 194 194 193 191 194 203 203 204 205 208 202 182 176 162 211 215 242 203 192 334 277 241 224 114 64 327 285 268 248 230 232 224 234 235 237 238 238
190 197 197 195 192 192 198 198 200 203 200 202 206 211 206 209 203 165 163 206 329 247 262 235 210 224 236 189 218 195 163 144 255 274 243 246 236 236 239 236 239 243 244
194 195 197 197 195 193 200 207 206 204 203 205 214 211 204 198 211 201 203 148 126 171 253 254 213 217 197 195 201 247 236 250 238 263 226 241 236 234 241 246 242 241 244
192 197 197 196 199 195 202 201 201 200 204 208 211 211 218 209 215 207 183 176 169 197 217 197 218 195 163 173 198 234 231 246 234 194 257 247 259 245 250 250 247 245 242
193 198 199 197 203 197 199 196 197 199 200 206 214 209 202 208 220 198 188 184 200 216 228 183 169 169 152 165 143 115 118 203 245 224 240 255 236 237 236 250 263 254 249
188 197 200 202 202 200 198 200 202 202 203 211 204 211 214 213 204 201 195 181 173 200 192 185 170 157 129 170 140 121 24 241 243 233 242 243 229 233 247 254 262 257 255
193 192 198 202 204 205 203 202 203 207 206 202 207 211 220 215 215 210 208 195 185 191 196 196 181 157 146 131 110 176 119 229 285 211 233 233 240 252 243 247 250 253 260
194 193 200 203 204 206 206 206 204 200 202 210 213 214 216 219 216 213 216 215 206 203 208 199 195 179 155 150 177 89 118 145 148 350 336 319 259 256 258 256 251 267 271
193 191 197 203 203 205 208 210 210 213 214 213 214 217 219 222 225 220 215 210 209 207 206 205 199 185 160 165 115 118 100 86 100 127 307 341 35 356 259 249 252 261 263
195 194 193 201 204 207 211 212 215 215 219 215 217 220 222 223 225 220 221 221 221 218 217 216 213 217 241 228 197 190 101 143 128 102 152 295 276 19 48 232 255 254 247
Height
806 810 814 818 820 823 825 826 827 828 829 830 832 835 836 837 837 839 840 840 840 841 842 842 843 843 844 844 844 845 843 843 844 846 847 847 849 850 851 852 854 855 856
803 810 813 817 820 823 826 827 829 830 831 833 835 837 838 839 840 841 842 842 842 842 842 843 844 845 846 846 846 846 847 847 848 849 849 850 851 852 854 854 857 858 859
804 811 815 818 820 823 826 827 830 832 833 835 836 838 840 842 842 842 843 843 843 843 844 844 845 845 847 848 849 848 849 850 851 852 853 852 853 854 856 857 858 860 861
804 811 815 819 821 824 826 828 831 833 835 837 837 839 841 842 843 842 842 843 843 843 844 845 845 847 848 849 850 851 852 853 854 855 855 856 857 857 858 859 859 861 863
806 811 815 819 821 825 828 829 831 833 836 838 838 840 841 842 842 842 842 843 844 844 845 846 847 847 847 849 850 852 853 854 855 856 857 858 859 860 860 861 861 862 864
807 812 816 819 822 826 828 830 831 833 836 837 838 840 841 842 842 842 843 844 845 846 847 848 849 849 849 850 850 851 852 854 856 856 858 858 860 860 862 862 863 864 865
808 814 816 819 822 826 829 831 833 834 836 837 838 840 841 842 842 842 843 844 845 846 848 849 849 850 851 852 853 853 852 854 856 857 858 860 861 861 862 862 864 865 866
808 813 817 820 823 826 829 832 833 835 835 837 839 839 841 841 841 842 843 844 845 846 847 848 850 851 850 852 852 852 852 852 853 854 855 858 860 862 863 863 865 866 866
810 814 818 821 824 827 830 832 834 836 836 838 839 839 841 840 842 842 843 845 846 846 847 848 848 850 852 851 852 852 851 851 851 851 853 854 855 860 862 863 865 867 867
812 815 819 822 824 827 829 832 834 835 837 839 840 840 840 841 841 842 844 846 846 848 848 848 850 849 848 848 848 849 849 850 852 851 851 853 855 859 861 863 864 866 867
814 816 819 821 824 827 829 832 833 835 837 839 840 841 841 841 841 843 845 846 848 848 849 850 850 847 846 845 846 847 847 848 850 851 852 853 856 858 860 861 864 865 866
814 816 818 822 824 826 828 831 832 835 837 838 840 840 842 842 842 844 845 846 849 851 850 847 846 844 843 843 842 844 845 846 848 850 852 854 855 856 858 860 862 863 865
810 816 818 821 824 826 828 831 832 834 836 837 839 840 842 843 843 844 845 847 850 850 847 846 842 841 840 840 840 841 842 843 846 848 850 852 854 855 856 858 861 863 864
809 812 816 819 822 825 827 830 831 833 835 836 837 840 841 843 843 844 844 845 847 847 845 844 840 839 838 839 838 840 841 843 845 847 848 850 852 853 855 857 858 861 864
807 808 812 817 821 823 826 828 830 832 834 836 837 839 840 842 842 843 844 844 845 845 843 844 844 841 839 837 836 837 839 840 842 844 846 847 849 851 853 857 859 860 863
805 806 809 814 818 822 824 827 829 831 834 836 837 838 840 841 842 842 843 843 843 844 843 846 847 841 840 839 837 837 837 839 841 842 843 845 848 851 853 855 856 858 861
799 804 806 810 815 819 822 826 828 830 833 834 836 837 840 841 841 841 841 842 842 843 843 847 846 844 840 839 837 837 836 838 840 840 841 843 845 848 851 854 856 857 857
799 802 806 809 811 816 820 824 827 829 831 833 834 836 838 840 841 840 840 841 841 841 842 845 845 844 843 840 839 838 837 838 839 840 841 842 844 847 849 850 852 853 855
795 799 804 807 809 813 818 822 825 827 829 831 832 834 836 838 839 840 840 840 840 840 841 841 844 843 840 840 840 837 838 838 839 839 840 841 843 844 845 847 849 849 850
792 797 801 805 809 813 817 820 824 826 829 830 831 832 834 836 838 839 839 839 839 839 839 840 840 841 840 839 840 840 838 839 838 839 840 841 842 842 843 844 844 845 847
790 794 797 801 805 811 815 818 822 823 825 828 829 831 832 833 835 837 837 838 838 837 837 838 840 841 839 840 841 841 839 839 838 838 840 840 840 840 840 841 842 842 843
781 787 793 797 802 807 811 815 819 821 822 825 827 830 830 832 834 835 836 837 838 837 836 836 838 838 838 838 838 840 842 840 838 838 839 839 838 839 839 840 840 841 842
777 781 787 793 798 803 808 813 816 820 822 823 825 827 828 830 832 834 835 835 837 837 836 835 835 835 836 837 837 838 841 842 838 836 836 837 836 836 837 838 839 840 840
770 778 784 789 794 799 804 808 812 813 817 820 822 825 826 828 830 831 832 833 834 835 835 835 834 835 835 836 838 836 833 834 836 837 833 833 834 834 835 836 837 838 839
768 774 781 786 790 795 798 803 807 810 813 816 820 823 824 825 827 828 829 831 832 833 834 835 834 834 834 834 834 834 833 833 834 835 836 833 832 831 830 832 834 836 838
765 771 777 782 786 790 794 798 801 805 809 813 816 818 820 822 823 825 827 828 829 830 831 833 834 834 833 834 834 834 833 833 833 834 836 834 834 832 831 831 832 833 834